Regional Weather Roundup
Issued by NWS Albany, NY

Home | Current Version | Previous Version | Text Only | Print | Product List | Glossary On
Versions: 1 2 3 4 5 6 7 8 9 10 11 12 13 14 15 16 17 18 19 20 21 22 23 24 25 26 27 28 29 30 31 32 33 34 35 36 37 38 39 40 41 42 43 44 45 46 47 48 49 50
000
ASUS41 KALY 190810
RWRALY

NEW YORK STATE HOURLY WEATHER ROUNDUP
NATIONAL WEATHER SERVICE ALBANY NY
300 AM EST FRI DEC 19 2014

NOTE: "FAIR" INDICATES FEW OR NO CLOUDS BELOW 12,000 FEET WITH NO
SIGNIFICANT WEATHER AND/OR NO OBSTRUCTIONS TO VISIBILITY.

NYZ032-033-038>043-046>054-057>066-NYZ062>081-190900-
EAST


CITY           SKY/WX    TMP DP  RH WIND       PRES   REMARKS
ALBANY         CLOUDY    32  22  66 W15       29.96S WCI  22
GLENS FALLS    CLOUDY    31  22  69 NW6       29.94S WCI  25
POUGHKEEPSIE   CLOUDY    36  25  64 W7        29.95S WCI  30
NEWBURGH       CLOUDY    34  27  75 NW14      29.96S WCI  24
MONTGOMERY     CLOUDY    35  25  66 W8        29.95S WCI  29
WHITE PLAINS   MOCLDY    35  25  66 NW14G22   29.93S WCI  26
ISLIP          CLOUDY    34  27  75 W6        29.94S WCI  29
NEW YORK CITY  MOCLDY    37  26  64 NW16      29.97R WCI  28
CENTRAL PARK   PTCLDY    37  24  59 NW6       29.99R WCI  32
$$

NYZ005>009-017-018-044>046-055-056-190900-
CENTRAL


CITY           SKY/WX    TMP DP  RH WIND       PRES   REMARKS
FULTON         CLOUDY    28  22  78 W15G21    30.05R WCI  16
SYRACUSE       FRZ DRZL  27  24  89 W13       30.05R WCI  16
ROME           CLOUDY    28  25  88 W9        30.03R WCI  19
ELMIRA         CLOUDY    30  26  85 NW6       30.02S WCI  24
BINGHAMTON     CLOUDY    26  24  92 NW9       29.96R WCI  17
MONTICELLO     CLOUDY    28  27  93 W8        29.93S WCI  20
$$

NYZ026>034-041>043-190900-
NORTH


CITY           SKY/WX    TMP DP  RH WIND       PRES   REMARKS
WATERTOWN      CLOUDY    27  19  72 NW10      30.05R WCI  17
FORT DRUM      NOT AVBL
MASSENA        CLOUDY    25  19  78 NW9       30.03R WCI  15
SARANAC LAKE   CLOUDY    20  32 100 W5        29.89R WCI  13
PLATTSBURGH    CLOUDY    28  21  75 NW9       29.96R WCI  19
$$

NYZ001>004-010>016-019>021-190900-
WEST


CITY           SKY/WX    TMP DP  RH WIND       PRES   REMARKS
NIAGARA FALLS  CLOUDY    26  21  81 NW9       30.11R WCI  17
BUFFALO        CLOUDY    26  20  77 W8        30.10R WCI  18
DUNKIRK        CLOUDY    29  25  85 NW10      30.12R WCI  20
JAMESTOWN      CLOUDY    27  23  86 NW9       30.05R WCI  17
WELLSVILLE     CLOUDY    25  22  88 NW14G21   30.00R WCI  13
ROCHESTER      FRZ DRZL  27  22  81 NW12      30.09S WCI  17
PENN YAN       LGT SNOW  28  23  81 VRB7G17   30.04R WCI  21
$$

             KEY
       WCI = WIND CHILL INDEX
       VSB = VISIBILITY
       HX  = HEAT INDEX
$$


USA.gov is the U.S. government's official web portal to all federal, state and local government web resources and services.